Regional Weather Roundup
Issued by NWS Charleston, WV

Home | Current Version | Previous Version | Text Only | Print | Product List | Glossary On
Versions: 1 2 3 4 5 6 7 8 9 10 11 12 13 14 15 16 17 18 19 20 21 22 23 24 25 26 27
000
ASUS41 KRLX 161910
RWRRLX
West Virginia Regional Weather Roundup
National Weather Service Charleston WV
300 PM EDT WED APR 16 2014

Note: "fair" indicates few or no clouds below 12,000 feet with no
significant weather and/or obstructions to visibility.

WVZ003-162000-
Northern Panhandle of West Virginia

CITY           SKY/WX    TMP DP  RH WIND       PRES   REMARKS
WHEELING       SUNNY     40  16  37 SE6       30.42F
$$

WVZ009-162000-
Northwest West Virginia

CITY           SKY/WX    TMP DP  RH WIND       PRES   REMARKS
PARKERSBURG    SUNNY     45  18  34 E6        30.44F
$$

WVZ006-162000-
Western West Virginia

CITY           SKY/WX    TMP DP  RH WIND       PRES   REMARKS
HUNTINGTON     SUNNY     47  17  30 VRB5      30.37F
$$

WVZ015-162000-
West Central West Virginia

CITY           SKY/WX    TMP DP  RH WIND       PRES   REMARKS
CHARLESTON     MOSUNNY   48  19  31 E6        30.37F
$$

WVZ031-162000-
North Central West Virginia

CITY           SKY/WX    TMP DP  RH WIND       PRES   REMARKS
CLARKSBURG     SUNNY     42  18  37 NE8       30.41F
MORGANTOWN     SUNNY     45  17  32 MISG      30.43F
$$

WVZ035-042-045-162000-
South Central West Virginia

CITY           SKY/WX    TMP DP  RH WIND       PRES   REMARKS
BECKLEY        SUNNY     45  18  34 NE7       30.31F
BLUEFIELD      SUNNY     49  15  25 VRB5      30.30F
LEWISBURG      SUNNY     46  18  32 W7        30.32F
$$

WVZ047-162000-
Northern Mountains of West Virginia

CITY           SKY/WX    TMP DP  RH WIND       PRES   REMARKS
ELKINS         SUNNY     44  20  38 VRB7      30.36F
$$

WVZ052-162000-
Eastern Panhandle of West Virginia

CITY           SKY/WX    TMP DP  RH WIND       PRES   REMARKS
MARTINSBURG    SUNNY     45  12  26 CALM      30.45F
PETERSBURG     SUNNY     49  25  38 SE6       30.42F
$$



USA.gov is the U.S. government's official web portal to all federal, state and local government web resources and services.